sat.trackr.live / text

‹ back to catalog

STARLINK-30350

NORAD 57746 · 2023-131Q

PAYLOAD ACTIVE UNKNOWN

§ Identity

Operator
Country
US
Launch date
2023-09-01
Launch site
AFETR
Launch vehicle
Mass (kg)
RCS (m²)

Purposes: comms

External: N2YO · Heavens-Above · Gunter

§ Orbital elements

Epoch: 2026-05-24T21:55:50.187648Z

Period
94.27 min
Inclination
43.0024°
Eccentricity
0.0000734
Mean motion
15.27575147 rev/d
Perigee alt
482.6 km
Apogee alt
483.6 km
Semi-major
6,861.2 km
B*
3.3890e-5
RAAN
98.5906°
Arg perigee
280.6050°
Mean anomaly
79.4719°
Rev number
15,161

§ Raw data

STARLINK-303501 57746U 23131Q   26144.91377532  .00000671  00000+0  33890-4 0  99932 57746  43.0024  98.5906 0000734 280.6050  79.4719 15.27575147151611

JSON: /api/v1/satellites/57746 · /tle

For live sub-satellite position, see the globe view (requires WebGL).

§ Visibility from observer

Set your observer location to see the next 7 days of passes ≥ 10°. The values pass through the URL so the page stays shareable.

No JS? Fill the form by hand. The geolocation button needs JavaScript.